Location: Ash Observatory
(39.7321°N, 75.2004°W)
Time: 17:59:48
(UTC-04:00)

Envisat - Pass Details

Date: 26 March 2019
Orbit: 764 x 766 km, 98.2° (Epoch: 23 April)

Event Time Altitude Azimuth Distance (km) Brightness Sun altitude
Rises 20:28:07 0° 194° (SSW) 3,218 6.2 -14.0°
Reaches altitude 10° 20:30:43 10° 206° (SSW) 2,296 5.6 -14.4°
Maximum altitude 20:35:01 28° 265° (W) 1,419 5.1 -15.2°
Drops below altitude 10° 20:39:21 10° 323° (NW) 2,310 6.3 -16.0°
Sets 20:41:59 0° 335° (NNW) 3,240 6.9 -16.5°
